"read_dt","SO2 (ppb)","flags","PMT voltage (V)","lamp voltage (V)","lamp intensity (Hz)","internal temp (C)","react chamber temp (C)","sample flow (l/min)","pres (mmHg)","SO2 bkg (ppb)","SO2 coefficient"
2018-07-12 00:00:00,-3.309E-01,4C000000*,-702.6,967.022,89,29.1,45.0,0.405,730.5,2.2,1.050*
2018-07-12 00:01:00,-2.491E-01,4C000000*,-702.3,965.809,88,29.1,45.1,0.405,730.5,2.2,1.050*
2018-07-12 00:02:00,-2.542E-01,4C000000*,-702.6,966.618,91,29.1,44.8,0.405,730.5,2.2,1.050*
2018-07-12 00:03:00,-3.079E-01,4C000000*,-702.6,967.022,89,29.0,45.2,0.404,730.8,2.2,1.050*
2018-07-12 00:04:00,-3.404E-01,4C000000*,-703.0,966.214,90,29.0,44.8,0.405,730.8,2.2,1.050*
2018-07-12 00:05:00,-3.024E-01,4C000000*,-702.6,967.427,90,29.1,45.1,0.405,730.8,2.2,1.050*
2018-07-12 00:06:00,-3.521E-01,4C000000*,-702.6,966.214,89,29.0,45.0,0.405,730.5,2.2,1.050*
2018-07-12 00:07:00,-2.987E-01,4C000000*,-702.6,965.809,90,29.1,45.0,0.405,730.5,2.2,1.050*
2018-07-12 00:08:00,-3.262E-01,4C000000*,-702.6,966.618,89,29.1,45.1,0.405,730.5,2.2,1.050*
2018-07-12 00:09:00,-3.533E-01,4C000000*,-702.6,967.022,91,29.1,44.9,0.405,730.8,2.2,1.050*
2018-07-12 00:10:00,-3.742E-01,4C000000*,-703.0,966.214,90,29.1,45.1,0.405,730.8,2.2,1.050*
2018-07-12 00:11:00,-2.704E-01,4C000000*,-702.6,967.427,91,29.1,44.8,0.405,730.8,2.2,1.050*
2018-07-12 00:12:00,-2.559E-01,4C000000*,-702.6,967.022,89,29.1,45.1,0.405,730.8,2.2,1.050*
2018-07-12 00:13:00,-2.610E-01,4C000000*,-702.6,966.214,90,29.0,44.9,0.405,730.8,2.2,1.050*
2018-07-12 00:14:00,-2.623E-01,4C000000*,-703.0,965.809,89,29.1,45.0,0.405,730.8,2.2,1.050*
2018-07-12 00:15:00,-3.046E-01,4C000000*,-702.6,966.214,89,29.1,45.1,0.405,730.5,2.2,1.050*
2018-07-12 00:16:00,-2.867E-01,4C000000*,-702.6,966.214,90,29.1,44.9,0.405,730.8,2.2,1.050*
2018-07-12 00:17:00,-2.804E-01,4C000000*,-702.6,965.405,90,29.0,45.0,0.405,730.5,2.2,1.050*
2018-07-12 00:18:00,-3.574E-01,4C000000*,-702.6,965.809,90,29.0,44.9,0.405,730.5,2.2,1.050*
2018-07-12 00:19:00,-3.655E-01,4C000000*,-702.6,966.618,91,29.0,45.2,0.405,730.8,2.2,1.050*
2018-07-12 00:20:00,-2.792E-01,4C000000*,-702.6,966.214,89,29.0,44.8,0.405,730.5,2.2,1.050*
2018-07-12 00:21:00,-3.024E-01,4C000000*,-703.0,965.809,89,29.1,45.0,0.405,730.8,2.2,1.050*
2018-07-12 00:22:00,-3.004E-01,4C000000*,-703.0,965.809,89,29.1,45.0,0.405,730.5,2.2,1.050*
2018-07-12 00:23:00,-3.770E-01,4C000000*,-703.0,965.809,90,29.1,45.0,0.405,730.5,2.2,1.050*
2018-07-12 00:24:00,-2.743E-01,4C000000*,-702.3,967.022,89,29.1,45.0,0.405,730.5,2.2,1.050*
2018-07-12 00:25:00,-2.772E-01,4C000000*,-702.6,966.618,91,29.1,44.8,0.405,730.8,2.2,1.050*
2018-07-12 00:26:00,-2.841E-01,4C000000*,-702.6,966.214,91,29.0,45.2,0.405,730.5,2.2,1.050*
2018-07-12 00:27:00,-2.930E-01,4C000000*,-702.6,965.809,91,29.1,44.9,0.404,730.8,2.2,1.050*
2018-07-12 00:28:00,-2.976E-01,4C000000*,-702.6,965.809,89,29.1,44.9,0.405,730.8,2.2,1.050*
2018-07-12 00:29:00,-3.148E-01,4C000000*,-702.6,967.022,90,29.1,45.0,0.405,730.5,2.2,1.050*
2018-07-12 00:30:00,-2.922E-01,4C000000*,-702.6,966.214,90,29.1,44.9,0.405,730.5,2.2,1.050*
2018-07-12 00:31:00,-2.285E-01,4C000000*,-702.6,967.427,90,29.1,45.2,0.405,730.5,2.2,1.050*
2018-07-12 00:32:00,-3.025E-01,4C000000*,-702.6,965.809,90,29.1,44.8,0.405,730.8,2.2,1.050*
2018-07-12 00:33:00,-4.191E-01,4C000000*,-703.0,967.022,90,29.0,45.1,0.405,730.8,2.2,1.050*
2018-07-12 00:34:00,-3.222E-01,4C000000*,-702.3,966.214,90,29.1,45.0,0.405,730.5,2.2,1.050*
2018-07-12 00:35:00,-2.427E-01,4C000000*,-703.0,966.618,90,29.1,45.0,0.405,730.8,2.2,1.050*
2018-07-12 00:36:00,-3.353E-01,4C000000*,-702.6,965.809,89,29.1,45.1,0.405,730.5,2.2,1.050*
2018-07-12 00:37:00,-2.800E-01,4C000000*,-702.6,967.022,91,29.1,44.9,0.405,730.8,2.2,1.050*
2018-07-12 00:38:00,-3.260E-01,4C000000*,-702.6,966.214,91,29.1,45.2,0.405,730.8,2.2,1.050*
2018-07-12 00:39:00,-2.826E-01,4C000000*,-703.0,966.214,91,29.1,44.8,0.405,730.8,2.2,1.050*
2018-07-12 00:40:00,-3.342E-01,4C000000*,-702.6,966.618,90,29.0,45.1,0.405,730.8,2.2,1.050*
2018-07-12 00:41:00,-2.652E-01,4C000000*,-702.6,966.214,89,29.1,44.9,0.405,730.8,2.2,1.050*
2018-07-12 00:42:00,-2.813E-01,4C000000*,-702.3,966.214,89,29.0,44.9,0.405,730.8,2.2,1.050*
2018-07-12 00:43:00,-3.538E-01,4C000000*,-702.6,965.809,90,29.1,45.1,0.405,730.5,2.2,1.050*
2018-07-12 00:44:00,-3.466E-01,4C000000*,-702.6,966.214,91,29.1,44.9,0.405,730.8,2.2,1.050*
2018-07-12 00:45:00,-3.133E-01,4C000000*,-702.6,967.022,90,29.1,45.2,0.405,730.5,2.2,1.050*
2018-07-12 00:46:00,-3.031E-01,4C000000*,-702.6,965.809,89,29.1,44.9,0.404,730.5,2.2,1.050*
2018-07-12 00:47:00,-3.258E-01,4C000000*,-702.6,964.597,90,29.1,45.1,0.405,730.8,2.2,1.050*
2018-07-12 00:48:00,-3.033E-01,4C000000*,-702.6,965.405,89,29.0,44.9,0.405,730.5,2.2,1.050*
2018-07-12 00:49:00,-2.790E-01,4C000000*,-702.6,967.427,90,29.1,45.0,0.405,730.5,2.2,1.050*
2018-07-12 00:50:00,-3.282E-01,4C000000*,-702.6,967.427,90,29.1,45.1,0.404,730.5,2.2,1.050*
2018-07-12 00:51:00,-2.521E-01,4C000000*,-702.6,967.427,91,29.1,44.9,0.405,730.5,2.2,1.050*
2018-07-12 00:52:00,-3.222E-01,4C000000*,-702.6,966.618,91,29.1,45.1,0.405,730.8,2.2,1.050*
2018-07-12 00:53:00,-3.567E-01,4C000000*,-702.6,967.022,91,29.1,44.9,0.405,730.8,2.2,1.050*
2018-07-12 00:54:00,-2.211E-01,4C000000*,-702.6,965.809,90,29.1,45.1,0.405,730.8,2.2,1.050*
2018-07-12 00:55:00,-3.368E-01,4C000000*,-702.3,966.214,88,29.1,44.9,0.405,730.5,2.2,1.050*
2018-07-12 00:56:00,-2.961E-01,4C000000*,-702.6,967.831,90,29.1,45.1,0.404,730.5,2.2,1.050*
2018-07-12 00:57:00,-3.598E-01,4C000000*,-702.3,965.809,90,29.1,44.9,0.405,730.5,2.2,1.050*
2018-07-12 00:58:00,-3.564E-01,4C000000*,-702.6,966.618,90,29.1,44.9,0.405,730.8,2.2,1.050*
2018-07-12 00:59:00,-2.651E-01,4C000000*,-702.3,967.831,89,29.1,45.0,0.405,730.5,2.2,1.050*
2018-07-12 01:00:00,-3.229E-01,4C000000*,-702.6,966.618,91,29.2,44.9,0.405,730.8,2.2,1.050*
2018-07-12 01:01:00,-2.288E-01,4C000000*,-702.6,966.214,91,29.1,45.2,0.405,730.5,2.2,1.050*
2018-07-12 01:02:00,-2.647E-01,4C000000*,-702.6,965.809,89,29.1,44.8,0.405,730.5,2.2,1.050*
2018-07-12 01:03:00,-2.048E-01,4C000000*,-702.6,965.405,89,29.1,45.1,0.405,730.5,2.2,1.050*
2018-07-12 01:04:00,-2.865E-01,4C000000*,-703.0,967.427,90,29.1,45.0,0.405,730.5,2.2,1.050*
2018-07-12 01:05:00,-3.305E-01,4C000000*,-702.6,967.427,90,29.1,45.0,0.405,730.5,2.2,1.050*
2018-07-12 01:06:00,-2.209E-01,4C000000*,-702.6,967.022,89,29.1,45.1,0.404,730.5,2.2,1.050*
2018-07-12 01:07:00,-2.489E-01,4C000000*,-702.3,966.618,90,29.1,44.9,0.405,730.5,2.2,1.050*
2018-07-12 01:08:00,-2.537E-01,4C000000*,-702.6,967.427,90,29.1,45.2,0.405,730.5,2.2,1.050*
2018-07-12 01:09:00,-3.542E-01,4C000000*,-703.0,966.214,90,29.2,44.8,0.405,730.5,2.2,1.050*
2018-07-12 01:10:00,-3.102E-01,4C000000*,-703.0,966.214,90,29.1,45.0,0.405,730.5,2.2,1.050*
2018-07-12 01:11:00,-2.218E-01,4C000000*,-702.6,965.405,90,29.1,44.9,0.404,730.5,2.2,1.050*
2018-07-12 01:12:00,-3.478E-01,4C000000*,-703.0,966.618,90,29.1,45.0,0.405,730.5,2.2,1.050*
2018-07-12 01:13:00,-3.174E-01,4C000000*,-702.6,966.214,89,29.1,45.1,0.405,730.5,2.2,1.050*
2018-07-12 01:14:00,-2.515E-01,4C000000*,-702.6,966.214,90,29.1,44.9,0.405,730.5,2.2,1.050*
2018-07-12 01:15:00,-3.062E-01,4C000000*,-703.0,966.618,89,29.1,45.1,0.405,730.2,2.2,1.050*
2018-07-12 01:16:00,-2.762E-01,4C000000*,-702.6,966.214,89,29.2,44.8,0.405,730.5,2.2,1.050*
2018-07-12 01:17:00,-2.482E-01,4C000000*,-703.0,965.809,90,29.2,45.1,0.404,730.5,2.2,1.050*
2018-07-12 01:18:00,-3.349E-01,4C000000*,-702.6,967.427,90,29.2,44.9,0.405,730.5,2.2,1.050*
2018-07-12 01:19:00,-2.532E-01,4C000000*,-702.6,966.618,90,29.2,45.0,0.405,730.5,2.2,1.050*
2018-07-12 01:20:00,-2.570E-01,4C000000*,-702.6,966.214,90,29.2,45.0,0.405,730.5,2.2,1.050*
2018-07-12 01:21:00,-2.753E-01,4C000000*,-702.6,965.809,90,29.3,45.0,0.405,730.5,2.2,1.050*
2018-07-12 01:22:00,-3.296E-01,4C000000*,-702.6,966.214,90,29.2,45.1,0.405,730.5,2.2,1.050*
2018-07-12 01:23:00,-3.356E-01,4C000000*,-702.6,967.022,90,29.2,44.9,0.405,730.5,2.2,1.050*
2018-07-12 01:24:00,-3.148E-01,4C000000*,-702.6,966.618,91,29.2,45.2,0.405,730.5,2.2,1.050*
2018-07-12 01:25:00,-3.747E-01,4C000000*,-702.6,967.022,90,29.2,44.8,0.405,730.2,2.2,1.050*
2018-07-12 01:26:00,-2.062E-01,4C000000*,-702.6,967.022,90,29.2,45.1,0.405,730.5,2.2,1.050*
2018-07-12 01:27:00,-2.585E-01,4C000000*,-702.6,966.618,90,29.2,44.9,0.405,730.2,2.2,1.050*
2018-07-12 01:28:00,-2.449E-01,4C000000*,-703.0,966.618,89,29.2,45.0,0.405,730.5,2.2,1.050*
2018-07-12 01:29:00,-3.811E-01,4C000000*,-702.6,965.809,89,29.2,45.1,0.405,730.5,2.2,1.050*
2018-07-12 01:30:00,-2.515E-01,4C000000*,-703.0,966.618,90,29.2,44.9,0.405,730.5,2.2,1.050*
2018-07-12 01:31:00,-3.547E-01,4C000000*,-702.6,967.022,90,29.3,45.2,0.405,730.5,2.2,1.050*
2018-07-12 01:32:00,-2.645E-01,4C000000*,-703.0,967.022,89,29.2,44.8,0.404,730.2,2.2,1.050*
2018-07-12 01:33:00,-2.528E-01,4C000000*,-702.6,965.809,91,29.2,45.0,0.405,730.2,2.2,1.050*
2018-07-12 01:34:00,-2.686E-01,4C000000*,-703.0,965.809,90,29.2,45.0,0.405,730.2,2.2,1.050*
2018-07-12 01:35:00,-3.765E-01,4C000000*,-702.6,965.809,90,29.2,45.0,0.405,730.5,2.2,1.050*
2018-07-12 01:36:00,-2.965E-01,4C000000*,-702.6,966.618,89,29.3,45.0,0.405,730.2,2.2,1.050*
2018-07-12 01:37:00,-2.785E-01,4C000000*,-702.6,966.618,91,29.3,44.8,0.405,730.5,2.2,1.050*
2018-07-12 01:38:00,-3.392E-01,4C000000*,-702.3,966.214,90,29.3,45.1,0.404,730.2,2.2,1.050*
2018-07-12 01:39:00,-3.656E-01,4C000000*,-702.6,966.618,91,29.2,44.8,0.405,730.2,2.2,1.050*
2018-07-12 01:40:00,-3.805E-01,4C000000*,-703.0,966.214,91,29.3,45.1,0.405,730.2,2.2,1.050*
2018-07-12 01:41:00,-2.789E-01,4C000000*,-702.6,966.214,90,29.3,44.9,0.404,730.2,2.2,1.050*
2018-07-12 01:42:00,-2.615E-01,4C000000*,-702.6,967.022,91,29.3,45.0,0.405,730.2,2.2,1.050*
2018-07-12 01:43:00,-3.031E-01,4C000000*,-702.6,966.214,90,29.3,45.1,0.405,730.2,2.2,1.050*
2018-07-12 01:44:00,-2.789E-01,4C000000*,-703.0,966.214,90,29.4,45.0,0.405,730.2,2.2,1.050*
2018-07-12 01:45:00,-2.607E-01,4C000000*,-702.6,966.618,90,29.4,45.0,0.405,730.2,2.2,1.050*
2018-07-12 01:46:00,-3.696E-01,4C000000*,-703.0,966.618,89,29.3,44.8,0.405,730.2,2.2,1.050*
2018-07-12 01:47:00,-3.442E-01,4C000000*,-702.6,966.214,91,29.3,45.2,0.405,730.2,2.2,1.050*
2018-07-12 01:48:00,-2.421E-01,4C000000*,-702.6,965.405,89,29.3,44.9,0.404,730.2,2.2,1.050*
2018-07-12 01:49:00,-2.867E-01,4C000000*,-702.6,966.618,90,29.4,45.0,0.405,730.2,2.2,1.050*
2018-07-12 01:50:00,-2.810E-01,4C000000*,-702.6,967.022,90,29.3,45.0,0.405,730.2,2.2,1.050*
2018-07-12 01:51:00,-3.038E-01,4C000000*,-702.6,964.597,89,29.4,44.9,0.405,730.5,2.1,1.050*
2018-07-12 01:52:00,-2.837E-01,4C000000*,-702.6,966.618,89,29.3,45.1,0.405,730.2,2.2,1.050*
2018-07-12 01:53:00,-3.247E-01,4C000000*,-702.6,966.214,91,29.3,44.9,0.405,730.5,2.2,1.050*
2018-07-12 01:54:00,-3.334E-01,4C000000*,-702.6,966.214,88,29.4,45.2,0.405,730.2,2.2,1.050*
2018-07-12 01:55:00,-3.221E-01,4C000000*,-702.6,965.809,90,29.4,44.8,0.405,730.2,2.2,1.050*
2018-07-12 01:56:00,-2.873E-01,4C000000*,-703.0,967.831,90,29.4,45.1,0.405,730.2,2.2,1.050*
2018-07-12 01:57:00,-3.039E-01,4C000000*,-702.6,965.405,91,29.4,45.0,0.405,730.2,2.2,1.050*
2018-07-12 01:58:00,-3.261E-01,4C000000*,-702.6,965.809,90,29.4,45.0,0.405,730.2,2.1,1.050*
2018-07-12 01:59:00,-2.679E-01,4C000000*,-703.0,965.001,89,29.4,45.1,0.405,730.2,2.2,1.050*
2018-07-12 02:00:00,-2.709E-01,4C000000*,-702.6,965.809,90,29.3,44.9,0.405,730.2,2.1,1.050*
2018-07-12 02:01:00,-3.511E-01,4C000000*,-703.0,965.405,90,29.4,45.2,0.405,730.2,2.1,1.050*
2018-07-12 02:02:00,-3.035E-01,4C000000*,-702.6,965.405,90,29.4,44.8,0.405,730.2,2.1,1.050*
2018-07-12 02:03:00,-3.018E-01,4C000000*,-702.6,966.214,88,29.4,45.1,0.405,730.5,2.1,1.050*
2018-07-12 02:04:00,-3.178E-01,4C000000*,-702.6,965.809,90,29.4,44.9,0.405,730.2,2.1,1.050*
2018-07-12 02:05:00,-3.853E-01,4C000000*,-703.0,967.022,89,29.4,45.0,0.405,730.5,2.2,1.050*
2018-07-12 02:06:00,-2.911E-01,4C000000*,-702.6,965.405,90,29.4,45.1,0.405,730.5,2.1,1.050*
2018-07-12 02:07:00,-2.901E-01,4C000000*,-702.6,966.214,90,29.4,44.9,0.405,730.2,2.2,1.050*
2018-07-12 02:08:00,-2.917E-01,4C000000*,-702.6,965.809,90,29.4,45.1,0.405,730.2,2.1,1.050*
2018-07-12 02:09:00,-2.515E-01,4C000000*,-702.3,965.405,90,29.4,44.8,0.405,730.5,2.1,1.050*
2018-07-12 02:10:00,-2.659E-01,4C000000*,-702.6,966.618,89,29.4,45.1,0.404,730.5,2.1,1.050*
2018-07-12 02:11:00,-2.837E-01,4C000000*,-702.6,966.618,90,29.4,44.9,0.405,730.2,2.1,1.050*
2018-07-12 02:12:00,-3.048E-01,4C000000*,-702.6,966.618,89,29.4,45.1,0.405,730.2,2.1,1.050*
2018-07-12 02:13:00,-3.253E-01,4C000000*,-703.0,965.405,90,29.4,45.0,0.405,730.2,2.1,1.050*
2018-07-12 02:14:00,-3.292E-01,4C000000*,-702.6,965.809,89,29.4,44.9,0.405,730.2,2.1,1.050*
2018-07-12 02:15:00,-3.009E-01,4C000000*,-702.6,965.809,90,29.4,45.0,0.405,730.2,2.2,1.050*
2018-07-12 02:16:00,-3.605E-01,4C000000*,-702.6,965.809,90,29.5,44.8,0.405,730.2,2.1,1.050*
2018-07-12 02:17:00,-2.645E-01,4C000000*,-702.6,966.214,90,29.5,45.2,0.405,730.2,2.1,1.050*
2018-07-12 02:18:00,-2.489E-01,4C000000*,-702.6,966.214,90,29.5,44.9,0.405,729.9,2.2,1.050*
2018-07-12 02:19:00,-2.885E-01,4C000000*,-702.6,965.809,90,29.5,45.0,0.405,730.2,2.1,1.050*
2018-07-12 02:20:00,-3.292E-01,4C000000*,-702.6,968.235,91,29.4,45.0,0.405,730.2,2.1,1.050*
2018-07-12 02:21:00,-2.982E-01,4C000000*,-703.0,965.405,89,29.4,44.8,0.405,730.2,2.1,1.050*
2018-07-12 02:22:00,-3.154E-01,4C000000*,-702.6,965.809,91,29.4,45.0,0.405,730.2,2.1,1.050*
2018-07-12 02:23:00,-3.490E-01,4C000000*,-702.6,965.809,90,29.4,45.0,0.404,730.2,2.1,1.050*
2018-07-12 02:24:00,-2.694E-01,4C000000*,-702.6,966.214,90,29.4,44.8,0.405,730.2,2.1,1.050*
2018-07-12 02:25:00,-2.809E-01,4C000000*,-702.6,967.022,89,29.6,45.2,0.405,730.2,2.1,1.050*
2018-07-12 02:26:00,-3.623E-01,4C000000*,-702.6,967.022,89,29.5,44.9,0.404,730.2,2.1,1.050*
2018-07-12 02:27:00,-3.250E-01,4C000000*,-702.6,966.618,90,29.4,45.1,0.405,730.2,2.1,1.050*
2018-07-12 02:28:00,-2.501E-01,4C000000*,-702.6,965.001,89,29.5,44.9,0.405,730.2,2.1,1.050*
2018-07-12 02:29:00,-3.260E-01,4C000000*,-702.6,964.597,90,29.5,45.0,0.405,730.5,2.1,1.050*
2018-07-12 02:30:00,-2.385E-01,4C000000*,-702.6,967.022,90,29.5,45.1,0.405,730.2,2.1,1.050*
2018-07-12 02:31:00,-2.278E-01,4C000000*,-702.6,967.427,87,29.5,44.9,0.405,730.2,2.1,1.050*
2018-07-12 02:32:00,-3.670E-01,4C000000*,-703.0,965.405,90,29.5,45.1,0.405,730.2,2.1,1.050*
2018-07-12 02:33:00,-3.308E-01,4C000000*,-703.0,965.809,91,29.5,44.9,0.405,730.2,2.1,1.050*
2018-07-12 02:34:00,-3.408E-01,4C000000*,-702.6,966.618,90,29.6,45.2,0.405,730.2,2.1,1.050*
2018-07-12 02:35:00,-2.603E-01,4C000000*,-702.6,965.809,89,29.5,44.9,0.405,730.2,2.1,1.050*
2018-07-12 02:36:00,-3.349E-01,4C000000*,-702.6,966.214,90,29.5,45.1,0.404,730.2,2.1,1.050*
2018-07-12 02:37:00,-3.336E-01,4C000000*,-703.0,965.809,90,29.5,44.9,0.404,730.2,2.1,1.050*
2018-07-12 02:38:00,-3.211E-01,4C000000*,-703.0,967.831,90,29.5,44.9,0.405,729.9,2.1,1.050*
2018-07-12 02:39:00,-2.779E-01,4C000000*,-702.6,965.809,88,29.5,45.1,0.404,730.2,2.1,1.050*
2018-07-12 02:40:00,-3.293E-01,4C000000*,-703.0,966.214,90,29.5,44.9,0.405,730.2,2.1,1.050*
2018-07-12 02:41:00,-2.906E-01,4C000000*,-702.6,966.618,89,29.5,45.2,0.405,730.2,2.1,1.050*
2018-07-12 02:42:00,-2.718E-01,4C000000*,-702.6,966.214,89,29.5,44.8,0.405,730.2,2.1,1.050*
2018-07-12 02:43:00,-2.609E-01,4C000000*,-702.6,966.618,88,29.5,45.1,0.405,730.2,2.1,1.050*
2018-07-12 02:44:00,-3.632E-01,4C000000*,-703.0,965.809,89,29.5,44.9,0.405,730.2,2.1,1.050*
2018-07-12 02:45:00,-3.135E-01,4C000000*,-702.6,967.831,91,29.6,45.0,0.405,730.2,2.1,1.050*
2018-07-12 02:46:00,-2.985E-01,4C000000*,-702.6,967.022,90,29.5,45.1,0.405,730.2,2.1,1.050*
2018-07-12 02:47:00,-2.522E-01,4C000000*,-702.6,967.022,89,29.6,44.8,0.405,730.5,2.1,1.050*
2018-07-12 02:48:00,-2.396E-01,4C000000*,-703.0,965.809,91,29.5,45.2,0.405,730.2,2.1,1.050*
2018-07-12 02:49:00,-2.893E-01,4C000000*,-702.6,965.809,91,29.5,44.9,0.405,730.2,2.1,1.050*
2018-07-12 02:50:00,-1.843E-01,4C000000*,-702.6,966.214,90,29.5,45.1,0.405,730.2,2.1,1.050*
2018-07-12 02:51:00,-3.721E-01,4C000000*,-702.6,966.618,91,29.6,45.0,0.405,730.2,2.1,1.050*
2018-07-12 02:52:00,-2.366E-01,4C000000*,-702.6,965.809,90,29.5,45.0,0.405,730.2,2.1,1.050*
2018-07-12 02:53:00,-2.710E-01,4C000000*,-702.6,966.214,91,29.5,45.1,0.405,730.2,2.1,1.050*
2018-07-12 02:54:00,-3.442E-01,4C000000*,-703.0,966.618,89,29.6,44.9,0.404,730.2,2.1,1.050*
2018-07-12 02:55:00,-3.126E-01,4C000000*,-702.3,965.809,90,29.6,45.2,0.405,729.9,2.1,1.050*
2018-07-12 02:56:00,-2.731E-01,4C000000*,-702.6,966.618,90,29.6,44.8,0.405,730.2,2.1,1.050*
2018-07-12 02:57:00,-3.640E-01,4C000000*,-702.6,965.001,89,29.6,45.1,0.405,730.2,2.1,1.050*
2018-07-12 02:58:00,-2.771E-01,4C000000*,-703.0,967.427,89,29.6,44.9,0.405,730.2,2.1,1.050*
2018-07-12 02:59:00,-3.219E-01,4C000000*,-702.6,966.618,90,29.6,45.1,0.405,730.2,2.1,1.050*
2018-07-12 03:00:00,-2.870E-01,4C000000*,-702.3,966.618,90,29.6,45.1,0.405,730.2,2.1,1.050*
2018-07-12 03:01:00,-3.327E-01,4C000000*,-702.6,966.618,90,29.6,44.9,0.405,730.2,2.1,1.050*
2018-07-12 03:02:00,-3.766E-01,4C000000*,-702.6,966.618,90,29.5,45.1,0.405,730.2,2.1,1.050*
2018-07-12 03:03:00,-3.572E-01,4C000000*,-702.6,965.809,90,29.6,44.9,0.405,730.2,2.1,1.050*
2018-07-12 03:04:00,-2.681E-01,4C000000*,-702.6,965.001,91,29.6,45.2,0.405,730.2,2.1,1.050*
2018-07-12 03:05:00,-2.813E-01,4C000000*,-702.6,965.809,91,29.6,44.8,0.405,730.2,2.1,1.050*
2018-07-12 03:06:00,-4.057E-01,4C000000*,-702.6,965.809,89,29.6,45.1,0.405,730.2,2.1,1.050*
2018-07-12 03:07:00,-2.934E-01,4C000000*,-702.3,965.001,90,29.6,45.0,0.405,729.9,2.1,1.050*
2018-07-12 03:08:00,-3.603E-01,4C000000*,-702.6,966.214,89,29.6,44.9,0.405,730.2,2.1,1.050*
2018-07-12 03:09:00,-3.341E-01,4C000000*,-703.4,965.809,90,29.6,45.0,0.405,730.2,2.1,1.050*
2018-07-12 03:10:00,-3.087E-01,4C000000*,-703.0,965.405,90,29.6,44.9,0.405,730.2,2.1,1.050*
2018-07-12 03:11:00,-3.027E-01,4C000000*,-703.0,967.022,90,29.7,45.3,0.405,729.9,2.1,1.050*
2018-07-12 03:12:00,-3.427E-01,4C000000*,-702.3,967.831,89,29.6,44.9,0.405,730.2,2.1,1.050*
2018-07-12 03:13:00,-4.127E-01,4C000000*,-702.3,965.405,90,29.7,45.1,0.405,730.2,2.1,1.050*
2018-07-12 03:14:00,-2.746E-01,4C000000*,-702.6,965.809,90,29.7,45.0,0.405,730.2,2.1,1.050*
2018-07-12 03:15:00,-2.771E-01,4C000000*,-702.6,966.214,90,29.6,45.0,0.404,730.2,2.1,1.050*
2018-07-12 03:16:00,-3.555E-01,4C000000*,-702.6,965.809,87,29.6,45.1,0.405,729.9,2.1,1.050*
2018-07-12 03:17:00,-3.789E-01,4C000000*,-703.0,965.809,90,29.6,44.9,0.405,730.2,2.1,1.050*
2018-07-12 03:18:00,-3.886E-01,4C000000*,-702.6,965.809,90,29.7,45.2,0.404,729.9,2.1,1.050*
2018-07-12 03:19:00,-2.908E-01,4C000000*,-702.6,966.214,89,29.7,44.9,0.405,729.9,2.1,1.050*
2018-07-12 03:20:00,-2.594E-01,4C000000*,-703.0,966.214,90,29.7,45.1,0.405,729.9,2.1,1.050*
2018-07-12 03:21:00,-2.991E-01,4C000000*,-702.6,966.214,89,29.6,45.0,0.405,729.9,2.1,1.050*
2018-07-12 03:22:00,-2.802E-01,4C000000*,-702.6,966.618,90,29.7,45.0,0.405,729.9,2.1,1.050*
2018-07-12 03:23:00,-3.179E-01,4C000000*,-702.6,967.427,90,29.7,45.1,0.404,729.9,2.1,1.050*
2018-07-12 03:24:00,-2.338E-01,4C000000*,-702.6,966.214,90,29.6,44.9,0.405,730.2,2.1,1.050*
2018-07-12 03:25:00,-3.254E-01,4C000000*,-703.4,966.214,89,29.6,45.1,0.405,729.9,2.1,1.050*
2018-07-12 03:26:00,-3.208E-01,4C000000*,-702.6,966.214,91,29.6,44.9,0.405,730.2,2.1,1.050*
2018-07-12 03:27:00,-2.799E-01,4C000000*,-702.6,966.618,91,29.6,45.1,0.405,729.9,2.1,1.050*
2018-07-12 03:28:00,-3.169E-01,4C000000*,-702.6,967.022,91,29.7,44.8,0.405,729.9,2.1,1.050*
2018-07-12 03:29:00,-2.892E-01,4C000000*,-702.6,965.809,91,29.6,45.0,0.405,730.2,2.1,1.050*
2018-07-12 03:30:00,-2.975E-01,4C000000*,-702.6,965.405,90,29.6,45.1,0.405,729.9,2.1,1.050*
2018-07-12 03:31:00,-2.673E-01,4C000000*,-703.4,966.214,89,29.6,45.0,0.405,729.9,2.1,1.050*
2018-07-12 03:32:00,-3.213E-01,4C000000*,-702.6,967.022,91,29.6,45.0,0.405,729.9,2.1,1.050*
2018-07-12 03:33:00,-3.276E-01,4C000000*,-702.6,965.809,90,29.6,44.9,0.405,729.9,2.1,1.050*
2018-07-12 03:34:00,-3.259E-01,4C000000*,-702.6,965.809,90,29.7,45.2,0.405,729.9,2.1,1.050*
2018-07-12 03:35:00,-2.612E-01,4C000000*,-702.6,965.405,89,29.7,44.8,0.405,729.9,2.1,1.050*
2018-07-12 03:36:00,-2.893E-01,4C000000*,-702.3,967.831,90,29.7,45.0,0.405,729.9,2.1,1.050*
2018-07-12 03:37:00,-2.469E-01,4C000000*,-702.3,965.809,89,29.7,45.0,0.405,729.9,2.1,1.050*
2018-07-12 03:38:00,-2.961E-01,4C000000*,-702.6,967.022,90,29.7,45.0,0.405,729.9,2.1,1.050*
2018-07-12 03:39:00,-2.949E-01,4C000000*,-702.6,965.809,90,29.7,45.1,0.405,729.9,2.1,1.050*
2018-07-12 03:40:00,-3.002E-01,4C000000*,-702.6,966.618,89,29.7,44.9,0.404,729.9,2.1,1.050*
2018-07-12 03:41:00,-3.398E-01,4C000000*,-702.6,965.405,89,29.7,45.2,0.405,729.9,2.1,1.050*
2018-07-12 03:42:00,-3.241E-01,4C000000*,-702.6,965.809,89,29.7,44.8,0.405,729.9,2.1,1.050*
2018-07-12 03:43:00,-2.816E-01,4C000000*,-702.3,965.809,89,29.7,45.1,0.405,729.9,2.1,1.050*
2018-07-12 03:44:00,-2.835E-01,4C000000*,-702.6,965.405,89,29.7,44.9,0.405,729.9,2.1,1.050*
2018-07-12 03:45:00,-2.978E-01,4C000000*,-702.6,966.214,90,29.8,45.0,0.405,730.2,2.1,1.050*
2018-07-12 03:46:00,-2.421E-01,4C000000*,-702.3,966.214,90,29.7,45.1,0.405,729.9,2.1,1.050*
2018-07-12 03:47:00,-3.093E-01,4C000000*,-702.3,966.618,91,29.8,44.9,0.405,730.2,2.1,1.050*
2018-07-12 03:48:00,-2.877E-01,4C000000*,-703.0,965.405,90,29.7,45.2,0.405,729.9,2.1,1.050*
2018-07-12 03:49:00,-3.498E-01,4C000000*,-701.9,967.022,90,29.7,44.9,0.405,729.9,2.1,1.050*
2018-07-12 03:50:00,-2.232E-01,4C000000*,-702.3,964.597,91,29.7,45.1,0.405,729.9,2.1,1.050*
2018-07-12 03:51:00,-2.873E-01,4C000000*,-702.6,965.809,90,29.7,44.9,0.405,729.9,2.1,1.050*
2018-07-12 03:52:00,-2.865E-01,4C000000*,-703.0,966.214,89,29.7,45.0,0.405,729.9,2.1,1.050*
2018-07-12 03:53:00,-3.059E-01,4C000000*,-702.6,965.405,90,29.8,45.1,0.405,729.6,2.1,1.050*
2018-07-12 03:54:00,-3.533E-01,4C000000*,-702.6,965.405,90,29.7,45.0,0.405,729.9,2.1,1.050*
2018-07-12 03:55:00,-3.195E-01,4C000000*,-703.4,966.214,89,29.7,45.0,0.404,729.9,2.1,1.050*
2018-07-12 03:56:00,-2.458E-01,4C000000*,-702.3,966.214,90,29.8,44.8,0.405,729.9,2.1,1.050*
2018-07-12 03:57:00,-2.998E-01,4C000000*,-702.6,966.214,90,29.7,45.1,0.405,729.9,2.1,1.050*
2018-07-12 03:58:00,-2.370E-01,4C000000*,-702.6,967.022,89,29.8,44.9,0.405,729.9,2.1,1.050*
2018-07-12 03:59:00,-3.039E-01,4C000000*,-703.0,965.809,90,29.8,45.0,0.405,729.9,2.1,1.050*
2018-07-12 04:00:00,-2.879E-01,4C000000*,-703.0,966.618,90,29.8,45.1,0.405,729.9,2.1,1.050*
2018-07-12 04:01:00,-3.146E-01,4C000000*,-702.6,967.022,90,29.8,45.0,0.405,729.9,2.1,1.050*
2018-07-12 04:02:00,-2.476E-01,4C000000*,-702.6,966.214,88,29.8,45.1,0.405,729.9,2.1,1.050*
2018-07-12 04:03:00,-2.568E-01,4C000000*,-702.3,966.214,90,29.8,44.9,0.404,729.9,2.1,1.050*
2018-07-12 04:04:00,-3.034E-01,4C000000*,-702.3,965.001,90,29.8,45.2,0.405,729.9,2.1,1.050*
2018-07-12 04:05:00,-3.687E-01,4C000000*,-702.6,965.405,91,29.8,44.9,0.404,729.9,2.1,1.050*
2018-07-12 04:06:00,-3.543E-01,4C000000*,-702.6,966.618,90,29.7,45.1,0.405,729.9,2.1,1.050*
2018-07-12 04:07:00,-2.827E-01,4C000000*,-702.6,965.809,90,29.7,44.9,0.404,729.9,2.1,1.050*
2018-07-12 04:08:00,-3.145E-01,4C000000*,-702.6,965.405,90,29.8,45.0,0.405,729.9,2.1,1.050*
2018-07-12 04:09:00,-2.953E-01,4C000000*,-702.3,965.405,90,29.8,45.1,0.405,729.9,2.1,1.050*
2018-07-12 04:10:00,-3.405E-01,4C000000*,-702.3,967.427,91,29.7,44.9,0.405,729.9,2.1,1.050*
2018-07-12 04:11:00,-2.674E-01,4C000000*,-702.6,966.214,91,29.8,45.2,0.405,729.9,2.1,1.050*
2018-07-12 04:12:00,-2.698E-01,4C000000*,-702.6,965.809,90,29.7,44.9,0.405,729.9,2.1,1.050*
2018-07-12 04:13:00,-3.131E-01,4C000000*,-703.0,965.405,89,29.8,45.1,0.405,729.9,2.1,1.050*
2018-07-12 04:14:00,-3.751E-01,4C000000*,-702.6,966.214,89,29.9,44.9,0.405,729.9,2.1,1.050*